Home   Weather   Werl   Past weeks

Flag for Germany Past Weather in Werl, North Rhine-Westphalia, Germany — Yesterday and Last 2 Weeks

Now
72 °F

Sunny.


Feels Like: 77 °F
Forecast: 48 / 78 °F
Wind: 5 mph from North

Location: Dortmund / Wickede

Current Time: Aug 30, 2016 at 3:21:55 PM

Latest Report: Aug 30, 2016 at 2:50 PM


Visibility: 10 mi

Pressure: 30.30 "Hg

Humidity: 33%

Dew Point: 41 °F

Location of WerlLocation

Past Weather in Werl — Graph

°F

Werl Temperature Yesterday

Maximum temperature yesterday: 68 °F (at 2:20 PM)
Minimum temperature yesterday: 59 °F (at 9:20 PM)
Average temperature yesterday: 64 °F

High & Low Weather Summary for the Past Weeks

 TemperatureHumidityPressure
High91 °F (Aug 25, 3:50 PM)94% (Aug 30, 6:50 AM)30.36 "Hg (Aug 30, 6:50 AM)
Low48 °F (Aug 16, 6:20 AM)16% (Aug 25, 3:50 PM)29.80 "Hg (Aug 18, 2:50 PM)
Average70 °F55%30.05 "Hg
* Reported Aug 15 1:20 PM — Aug 30 1:20 PM, Werl, Weather by CustomWeather, © 2016

Note: Actual official high and low records may vary slightly from our data, if they occured in-between our weather recording intervals... More about our weather records

Advertising

Werl Weather History for the Previous 24 Hours

Scroll right to see more
 ConditionsComfort  
Time TempWeatherWind HumidityBarometerVisibility
1:20 PM
Tue, Aug 30
70 °FPassing clouds.5 mph38%30.33 "HgN/A
12:50 PM68 °FSunny.5 mph46%30.33 "Hg10 mi
12:20 PM68 °FSunny.3 mph49%30.33 "Hg10 mi
11:50 AM66 °FSunny.3 mph52%30.33 "Hg10 mi
11:20 AM64 °FPassing clouds.5 mph60%30.33 "HgN/A
10:50 AM64 °FSunny.2 mph64%30.33 "Hg10 mi
10:20 AM63 °FSunny.2 mph68%30.33 "Hg10 mi
9:50 AM63 °FSunny.2 mph68%30.33 "Hg10 mi
9:20 AM61 °FSunny.3 mph72%30.33 "Hg10 mi
8:50 AM57 °FSunny.3 mph77%30.30 "Hg10 mi
8:20 AM55 °FSunny.6 mph88%30.30 "Hg10 mi
7:50 AM52 °FSunny.3 mph94%30.30 "Hg10 mi
7:20 AM50 °FFog.No wind94%30.27 "HgN/A
6:50 AM50 °FFog.No wind94%30.27 "HgN/A
6:20 AM52 °FClear.3 mph82%30.27 "Hg10 mi
5:50 AM54 °FClear.7 mph88%30.27 "Hg10 mi
5:20 AM54 °FClear.1 mph88%30.27 "Hg10 mi
9:50 PM
Mon, Aug 29
59 °FPassing clouds.5 mph77%30.21 "HgN/A
9:20 PM59 °FSunny.3 mph72%30.18 "Hg10 mi
8:50 PM63 °FPassing clouds.5 mph64%30.18 "HgN/A
8:20 PM64 °FPassing clouds.10 mph60%30.18 "HgN/A
7:50 PM66 °FScattered clouds.9 mph60%30.15 "HgN/A
7:20 PM68 °FScattered clouds.9 mph53%30.15 "HgN/A
6:50 PM68 °FScattered clouds.10 mph53%30.15 "HgN/A
6:20 PM68 °FScattered clouds.9 mph53%30.15 "HgN/A
5:50 PM68 °FScattered clouds.9 mph56%30.15 "HgN/A
5:20 PM68 °FScattered clouds.9 mph56%30.12 "HgN/A
4:50 PM68 °FScattered clouds.9 mph56%30.12 "HgN/A
4:20 PM68 °FScattered clouds.8 mph56%30.12 "HgN/A
3:50 PM68 °FScattered clouds.8 mph56%30.12 "HgN/A
3:20 PM66 °FBroken clouds.8 mph68%30.12 "HgN/A
Weather by CustomWeather, © 2016

See weather overviewHow to use our weather pages